BAW964H EGLL-EDDH

Flight info

Callsign BAW964H
Flight time 1h 10m
Altitude 37000
Route BPK Q295 SOMVA DCT MAVAS DCT GASTU DCT OSTOR/N0364F230 T904 RIBSO RIBSO7A
Aircraft A319/M-SDE3FGHIRWY/LB1

Departure

Time 2026-04-26 10:23
Airport London Heathrow Airport (EGLL)

Arrival

Time 2026-04-26 11:33
Airport Hamburg Helmut Schmidt Airport (EDDH)
Time Latitude Longitude Altitude Speed Heading
2026-04-26 09:45 51.46932 -0.48647 90 ft 0 kts 360°
2026-04-26 10:10 51.46928 -0.48647 86 ft 3 kts
2026-04-26 10:10 51.46902 -0.48652 91 ft 4 kts 18°
2026-04-26 10:10 51.46878 -0.48670 88 ft 4 kts 43°
2026-04-26 10:11 51.46862 -0.48704 90 ft 4 kts 63°
2026-04-26 10:11 51.46850 -0.48741 87 ft 4 kts 44°
2026-04-26 10:11 51.46842 -0.48751 90 ft 0 kts 360°
2026-04-26 10:11 51.46863 -0.48764 90 ft 4 kts 327°
2026-04-26 10:12 51.46878 -0.48797 88 ft 4 kts 292°
2026-04-26 10:12 51.46877 -0.48829 88 ft 0 kts 91°
2026-04-26 10:14 51.46877 -0.48823 89 ft 2 kts 91°
2026-04-26 10:14 51.46876 -0.48784 87 ft 5 kts 96°
2026-04-26 10:14 51.46845 -0.48751 90 ft 7 kts 173°
2026-04-26 10:15 51.46834 -0.48750 89 ft 0 kts 179°
2026-04-26 10:17 51.46833 -0.48750 89 ft 1 kts 179°
2026-04-26 10:17 51.46821 -0.48750 87 ft 3 kts 179°
2026-04-26 10:17 51.46795 -0.48749 86 ft 5 kts 179°
2026-04-26 10:17 51.46752 -0.48748 86 ft 7 kts 179°
2026-04-26 10:18 51.46691 -0.48747 86 ft 10 kts 180°
2026-04-26 10:18 51.46614 -0.48759 86 ft 13 kts 198°
2026-04-26 10:18 51.46585 -0.48774 88 ft 0 kts 198°
2026-04-26 10:19 51.46579 -0.48778 87 ft 3 kts 198°
2026-04-26 10:19 51.46524 -0.48782 89 ft 10 kts 166°
2026-04-26 10:20 51.46479 -0.48687 86 ft 13 kts 97°
2026-04-26 10:20 51.46479 -0.48587 86 ft 15 kts 90°
2026-04-26 10:20 51.46479 -0.48528 86 ft 0 kts 90°
2026-04-26 10:21 51.46479 -0.48526 86 ft 1 kts 90°
2026-04-26 10:22 51.46479 -0.48397 87 ft 35 kts 90°
2026-04-26 10:22 51.46481 -0.47686 86 ft 93 kts 90°
2026-04-26 10:22 51.46488 -0.46340 89 ft 145 kts 89°
2026-04-26 10:22 51.46487 -0.44600 534 ft 154 kts 89°
2026-04-26 10:23 51.46508 -0.42865 1275 ft 157 kts 90°
2026-04-26 10:23 51.46579 -0.41667 1661 ft 166 kts 78°
2026-04-26 10:23 51.47161 -0.39916 1992 ft 194 kts 53°
2026-04-26 10:23 51.48103 -0.38152 2396 ft 221 kts 52°
2026-04-26 10:24 51.49150 -0.36158 2949 ft 245 kts 52°
2026-04-26 10:24 51.50277 -0.34001 3877 ft 255 kts 52°
2026-04-26 10:24 51.51374 -0.31732 4901 ft 260 kts 56°
2026-04-26 10:24 51.52432 -0.29293 5850 ft 266 kts 61°
2026-04-26 10:25 51.53145 -0.26515 6770 ft 272 kts 75°
2026-04-26 10:25 51.53732 -0.23603 7617 ft 279 kts 63°
2026-04-26 10:25 51.54936 -0.21146 8479 ft 285 kts 39°
2026-04-26 10:25 51.56700 -0.19672 9370 ft 289 kts 18°
2026-04-26 10:26 51.58596 -0.18555 10298 ft 293 kts 21°
2026-04-26 10:26 51.60562 -0.17488 10884 ft 308 kts 17°
2026-04-26 10:26 51.62653 -0.16437 11237 ft 328 kts 16°
2026-04-26 10:26 51.64863 -0.15360 11871 ft 336 kts 15°
2026-04-26 10:27 51.67129 -0.14285 12622 ft 341 kts 14°
2026-04-26 10:27 51.69420 -0.13211 13411 ft 345 kts 15°
2026-04-26 10:27 51.71622 -0.11598 14140 ft 352 kts 31°
2026-04-26 10:27 51.73499 -0.09059 14799 ft 357 kts 47°
2026-04-26 10:28 51.74911 -0.05726 15427 ft 361 kts 64°
2026-04-26 10:28 51.75704 -0.01879 16081 ft 365 kts 80°
2026-04-26 10:28 51.76060 0.02194 16739 ft 369 kts 83°
2026-04-26 10:28 51.76399 0.06316 17391 ft 373 kts 83°
2026-04-26 10:29 51.76739 0.10482 18041 ft 377 kts 83°
2026-04-26 10:29 51.77083 0.14700 18679 ft 381 kts 83°
2026-04-26 10:29 51.77432 0.18974 19242 ft 385 kts 83°
2026-04-26 10:29 51.77784 0.23272 19808 ft 388 kts 83°
2026-04-26 10:30 51.78139 0.27620 20375 ft 392 kts 83°
2026-04-26 10:30 51.78494 0.32011 20938 ft 396 kts 83°
2026-04-26 10:30 51.78849 0.36434 21499 ft 399 kts 82°
2026-04-26 10:30 51.79207 0.40904 22046 ft 403 kts 82°
2026-04-26 10:31 51.79566 0.45415 22591 ft 407 kts 82°
2026-04-26 10:31 51.79925 0.49955 23138 ft 410 kts 82°
2026-04-26 10:31 51.80284 0.54549 23679 ft 414 kts 82°
2026-04-26 10:31 51.80643 0.59180 24163 ft 417 kts 82°
2026-04-26 10:32 51.81080 0.63844 24591 ft 421 kts 76°
2026-04-26 10:32 51.81938 0.68356 25005 ft 422 kts 66°
2026-04-26 10:32 51.83087 0.72737 25447 ft 425 kts 65°
2026-04-26 10:32 51.84241 0.77153 25891 ft 428 kts 65°
2026-04-26 10:33 51.85395 0.81615 26333 ft 430 kts 65°
2026-04-26 10:33 51.86543 0.86091 26768 ft 433 kts 65°
2026-04-26 10:33 51.87699 0.90609 27192 ft 436 kts 65°
2026-04-26 10:33 51.88863 0.95157 27614 ft 439 kts 65°
2026-04-26 10:34 51.90034 0.99734 28053 ft 441 kts 65°
2026-04-26 10:34 51.91199 1.04278 28480 ft 444 kts 65°
2026-04-26 10:34 51.92402 1.08958 28916 ft 446 kts 65°
2026-04-26 10:34 51.93582 1.13557 29334 ft 449 kts 65°
2026-04-26 10:35 51.94779 1.18244 29755 ft 451 kts 65°
2026-04-26 10:35 51.95977 1.22957 30167 ft 454 kts 65°
2026-04-26 10:35 51.97195 1.27765 30551 ft 457 kts 65°
2026-04-26 10:35 51.98384 1.32484 30878 ft 459 kts 65°
2026-04-26 10:36 51.99612 1.37367 31213 ft 462 kts 65°
2026-04-26 10:36 52.00811 1.42137 31531 ft 464 kts 65°
2026-04-26 10:36 52.02028 1.46991 31856 ft 466 kts 65°
2026-04-26 10:36 52.03250 1.51867 32245 ft 466 kts 64°
2026-04-26 10:37 52.04470 1.56742 32734 ft 465 kts 64°
2026-04-26 10:37 52.05683 1.61596 33174 ft 464 kts 64°
2026-04-26 10:37 52.06897 1.66458 33607 ft 463 kts 64°
2026-04-26 10:37 52.08104 1.71316 34060 ft 463 kts 64°
2026-04-26 10:38 52.09305 1.76159 34485 ft 462 kts 64°
2026-04-26 10:38 52.10507 1.81010 34878 ft 461 kts 65°
2026-04-26 10:38 52.11702 1.85835 35274 ft 460 kts 65°
2026-04-26 10:38 52.12897 1.90678 35657 ft 459 kts 65°
2026-04-26 10:39 52.14081 1.95493 36041 ft 458 kts 65°
2026-04-26 10:39 52.15259 2.00289 36446 ft 456 kts 65°
2026-04-26 10:39 52.16432 2.05077 36844 ft 454 kts 65°
2026-04-26 10:39 52.17596 2.09855 37213 ft 453 kts 65°
2026-04-26 10:40 52.18754 2.14629 37362 ft 453 kts 65°
2026-04-26 10:40 52.19909 2.19399 37376 ft 452 kts 65°
2026-04-26 10:40 52.22220 2.28916 37374 ft 451 kts 65°
2026-04-26 10:41 52.24523 2.38435 37374 ft 451 kts 65°
2026-04-26 10:41 52.26810 2.47969 37391 ft 451 kts 65°
2026-04-26 10:42 52.29069 2.57454 37379 ft 452 kts 65°
2026-04-26 10:42 52.31202 2.67114 37378 ft 453 kts 71°
2026-04-26 10:43 52.32945 2.77014 37377 ft 453 kts 71°
2026-04-26 10:43 52.34694 2.86917 37379 ft 453 kts 71°
2026-04-26 10:44 52.36433 2.96825 37375 ft 453 kts 71°
2026-04-26 10:44 52.38155 3.06746 37381 ft 453 kts 72°
2026-04-26 10:45 52.39930 3.16649 37375 ft 452 kts 66°
2026-04-26 10:45 52.42505 3.25995 37373 ft 450 kts 62°
2026-04-26 10:46 52.45128 3.35305 37372 ft 450 kts 62°
2026-04-26 10:46 52.47745 3.44631 37388 ft 450 kts 62°
2026-04-26 10:47 52.50341 3.53924 37383 ft 451 kts 63°
2026-04-26 10:47 52.52950 3.63298 37369 ft 452 kts 63°
2026-04-26 10:48 52.55554 3.72685 37370 ft 452 kts 63°
2026-04-26 10:48 52.58155 3.82100 37365 ft 452 kts 63°
2026-04-26 10:49 52.60751 3.91542 37381 ft 453 kts 63°
2026-04-26 10:49 52.63336 4.00972 37356 ft 453 kts 63°
2026-04-26 10:50 52.65482 4.08845 37373 ft 453 kts 64°
2026-04-26 10:50 52.68489 4.19910 37372 ft 453 kts 64°
2026-04-26 10:51 52.72332 4.34167 37369 ft 453 kts 64°
2026-04-26 10:52 52.74882 4.43678 37366 ft 454 kts 64°
2026-04-26 10:52 52.77438 4.53204 37362 ft 454 kts 64°
2026-04-26 10:53 52.79984 4.62756 37368 ft 454 kts 64°
2026-04-26 10:53 52.82503 4.72255 37378 ft 454 kts 64°
2026-04-26 10:54 52.86297 4.86611 37382 ft 454 kts 64°
2026-04-26 10:54 52.88817 4.96206 37381 ft 454 kts 64°
2026-04-26 10:55 52.91326 5.05814 37401 ft 454 kts 65°
2026-04-26 10:55 52.93410 5.13817 37379 ft 454 kts 65°
2026-04-26 10:56 52.96326 5.25065 37377 ft 454 kts 65°
2026-04-26 10:56 52.98820 5.34697 37372 ft 455 kts 65°
2026-04-26 10:57 53.01307 5.44348 37370 ft 455 kts 65°
2026-04-26 10:57 53.03782 5.54020 37370 ft 455 kts 65°
2026-04-26 10:58 53.06241 5.63712 37377 ft 455 kts 65°
2026-04-26 10:58 53.08698 5.73402 37378 ft 455 kts 65°
2026-04-26 10:59 53.11157 5.83097 37396 ft 455 kts 65°
2026-04-26 10:59 53.13607 5.92820 37386 ft 455 kts 65°
2026-04-26 11:00 53.16044 6.02565 37377 ft 456 kts 66°
2026-04-26 11:00 53.18459 6.12262 37373 ft 456 kts 66°
2026-04-26 11:01 53.20886 6.22026 37368 ft 456 kts 66°
2026-04-26 11:01 53.23307 6.31811 37366 ft 456 kts 66°
2026-04-26 11:02 53.25715 6.41597 37361 ft 456 kts 66°
2026-04-26 11:02 53.28110 6.51383 37365 ft 455 kts 66°
2026-04-26 11:03 53.30501 6.61188 37357 ft 455 kts 66°
2026-04-26 11:03 53.32885 6.71016 37064 ft 458 kts 66°
2026-04-26 11:04 53.34079 6.75948 36580 ft 457 kts 66°
2026-04-26 11:04 53.35265 6.80866 36141 ft 455 kts 66°
2026-04-26 11:04 53.36447 6.85777 35686 ft 453 kts 67°
2026-04-26 11:04 53.37618 6.90655 35225 ft 451 kts 67°
2026-04-26 11:05 53.38790 6.95531 34753 ft 450 kts 67°
2026-04-26 11:05 53.39954 7.00383 34262 ft 448 kts 67°
2026-04-26 11:05 53.41111 7.05221 33749 ft 446 kts 67°
2026-04-26 11:05 53.42256 7.10021 33283 ft 442 kts 67°
2026-04-26 11:06 53.43393 7.14804 32819 ft 439 kts 67°
2026-04-26 11:06 53.44136 7.17937 32473 ft 437 kts 67°
2026-04-26 11:06 53.45632 7.24253 31855 ft 433 kts 67°
2026-04-26 11:06 53.46741 7.28950 31392 ft 431 kts 67°
2026-04-26 11:07 53.47835 7.33604 30956 ft 428 kts 67°
2026-04-26 11:07 53.48921 7.38245 30515 ft 425 kts 67°
2026-04-26 11:07 53.50001 7.42858 30043 ft 423 kts 67°
2026-04-26 11:07 53.51070 7.47419 29648 ft 418 kts 67°
2026-04-26 11:08 53.52131 7.51956 29219 ft 415 kts 67°
2026-04-26 11:08 53.53178 7.56448 28833 ft 411 kts 67°
2026-04-26 11:08 53.54216 7.60912 28434 ft 409 kts 67°
2026-04-26 11:08 53.55248 7.65354 28037 ft 406 kts 67°
2026-04-26 11:09 53.56268 7.69758 27632 ft 404 kts 67°
2026-04-26 11:09 53.57284 7.74154 27233 ft 401 kts 67°
2026-04-26 11:09 53.58276 7.78453 26825 ft 399 kts 67°
2026-04-26 11:09 53.59275 7.82789 26418 ft 397 kts 67°
2026-04-26 11:10 53.60270 7.87111 25995 ft 395 kts 67°
2026-04-26 11:10 53.61257 7.91405 25572 ft 393 kts 67°
2026-04-26 11:10 53.62238 7.95696 25152 ft 391 kts 67°
2026-04-26 11:10 53.63209 7.99953 24734 ft 389 kts 67°
2026-04-26 11:11 53.64131 8.04238 24324 ft 387 kts 69°
2026-04-26 11:11 53.64977 8.08533 23899 ft 386 kts 70°
2026-04-26 11:11 53.65779 8.12839 23440 ft 383 kts 71°
2026-04-26 11:11 53.66555 8.17101 23030 ft 379 kts 71°
2026-04-26 11:12 53.67325 8.21318 22600 ft 375 kts 71°
2026-04-26 11:12 53.68099 8.25489 22205 ft 371 kts 70°
2026-04-26 11:12 53.68878 8.29630 21801 ft 368 kts 70°
2026-04-26 11:12 53.69391 8.32336 21536 ft 365 kts 70°
2026-04-26 11:13 53.70162 8.36400 21139 ft 362 kts 70°
2026-04-26 11:13 53.70929 8.40436 20726 ft 360 kts 70°
2026-04-26 11:13 53.71690 8.44452 20338 ft 358 kts 70°
2026-04-26 11:13 53.72441 8.48435 19941 ft 356 kts 70°
2026-04-26 11:14 53.73186 8.52412 19544 ft 354 kts 70°
2026-04-26 11:14 53.73926 8.56365 19154 ft 352 kts 70°
2026-04-26 11:14 53.74660 8.60296 18750 ft 350 kts 70°
2026-04-26 11:14 53.75391 8.64207 18332 ft 349 kts 70°
2026-04-26 11:15 53.76114 8.68104 17930 ft 346 kts 70°
2026-04-26 11:15 53.76828 8.71968 17545 ft 342 kts 70°
2026-04-26 11:15 53.77534 8.75793 17164 ft 339 kts 70°
2026-04-26 11:15 53.78235 8.79590 16776 ft 337 kts 70°
2026-04-26 11:16 53.78930 8.83352 16403 ft 334 kts 70°
2026-04-26 11:16 53.79620 8.87090 16030 ft 332 kts 70°
2026-04-26 11:16 53.80303 8.90807 15663 ft 330 kts 70°
2026-04-26 11:16 53.80980 8.94502 15286 ft 328 kts 69°
2026-04-26 11:17 53.81649 8.98168 14912 ft 326 kts 69°
2026-04-26 11:17 53.82318 9.01835 14539 ft 324 kts 69°
2026-04-26 11:17 53.82767 9.05572 14167 ft 326 kts 82°
2026-04-26 11:17 53.82714 9.09411 13767 ft 327 kts 94°
2026-04-26 11:18 53.82481 9.13231 13384 ft 325 kts 93°
2026-04-26 11:18 53.82259 9.17012 13019 ft 322 kts 93°
2026-04-26 11:18 53.82042 9.20771 12642 ft 320 kts 93°
2026-04-26 11:18 53.81826 9.24506 12269 ft 317 kts 93°
2026-04-26 11:19 53.81612 9.28207 11902 ft 316 kts 93°
2026-04-26 11:19 53.81337 9.31885 11534 ft 315 kts 100°
2026-04-26 11:19 53.80623 9.35381 11192 ft 315 kts 115°
2026-04-26 11:19 53.79484 9.38524 10951 ft 312 kts 123°
2026-04-26 11:20 53.78271 9.41562 10695 ft 310 kts 123°
2026-04-26 11:20 53.77350 9.43399 10527 ft 310 kts 137°
2026-04-26 11:20 53.74846 9.45695 10171 ft 307 kts 168°
2026-04-26 11:20 53.72752 9.45899 9936 ft 297 kts 191°
2026-04-26 11:21 53.70829 9.44901 9801 ft 283 kts 208°
2026-04-26 11:21 53.68999 9.43839 9664 ft 278 kts 189°
2026-04-26 11:21 53.67092 9.44040 9523 ft 274 kts 167°
2026-04-26 11:21 53.65262 9.44878 9289 ft 272 kts 166°
2026-04-26 11:22 53.63446 9.45654 9083 ft 268 kts 167°
2026-04-26 11:22 53.61667 9.46374 8892 ft 265 kts 167°
2026-04-26 11:22 53.59881 9.47079 8715 ft 263 kts 168°
2026-04-26 11:22 53.58106 9.47775 8537 ft 261 kts 167°
2026-04-26 11:23 53.56340 9.48471 8358 ft 260 kts 167°
2026-04-26 11:23 53.54582 9.49166 8182 ft 259 kts 167°
2026-04-26 11:23 53.52831 9.49847 8001 ft 257 kts 169°
2026-04-26 11:23 53.51062 9.49899 7824 ft 254 kts 192°
2026-04-26 11:24 53.49423 9.48918 7649 ft 250 kts 212°
2026-04-26 11:24 53.48098 9.47087 7474 ft 245 kts 232°
2026-04-26 11:24 53.47008 9.44901 7302 ft 245 kts 232°
2026-04-26 11:24 53.45843 9.42797 6888 ft 252 kts 218°
2026-04-26 11:25 53.44246 9.41637 6560 ft 250 kts 189°
2026-04-26 11:25 53.42546 9.41812 6282 ft 244 kts 162°
2026-04-26 11:25 53.41108 9.43214 6091 ft 237 kts 134°
2026-04-26 11:25 53.40214 9.45454 5903 ft 230 kts 109°
2026-04-26 11:26 53.39985 9.48034 5737 ft 221 kts 83°
2026-04-26 11:26 53.40394 9.50450 5583 ft 213 kts 60°
2026-04-26 11:26 53.41144 9.52590 5355 ft 216 kts 58°
2026-04-26 11:26 53.41911 9.54789 5002 ft 218 kts 59°
2026-04-26 11:27 53.42661 9.56976 4776 ft 214 kts 62°
2026-04-26 11:27 53.43387 9.59136 4679 ft 212 kts 56°
2026-04-26 11:27 53.44269 9.61122 4621 ft 212 kts 51°
2026-04-26 11:27 53.45199 9.63010 4525 ft 212 kts 50°
2026-04-26 11:28 53.46147 9.64901 4434 ft 212 kts 50°
2026-04-26 11:28 53.47096 9.66794 4347 ft 212 kts 50°
2026-04-26 11:28 53.48040 9.68678 4267 ft 211 kts 50°
2026-04-26 11:28 53.48987 9.70571 4083 ft 210 kts 50°
2026-04-26 11:29 53.49922 9.72441 3823 ft 209 kts 50°
2026-04-26 11:29 53.50851 9.74301 3544 ft 207 kts 50°
2026-04-26 11:29 53.51771 9.76144 3259 ft 205 kts 50°
2026-04-26 11:29 53.52678 9.77963 2976 ft 202 kts 50°
2026-04-26 11:30 53.53570 9.79750 2693 ft 195 kts 50°
2026-04-26 11:30 53.54139 9.80893 2517 ft 189 kts 50°
2026-04-26 11:30 53.55216 9.83057 2196 ft 174 kts 50°
2026-04-26 11:30 53.55970 9.84571 1954 ft 165 kts 50°
2026-04-26 11:31 53.56699 9.86038 1744 ft 163 kts 50°
2026-04-26 11:31 53.57393 9.87433 1507 ft 145 kts 50°
2026-04-26 11:31 53.58026 9.88708 1317 ft 141 kts 50°
2026-04-26 11:31 53.58649 9.89964 1128 ft 140 kts 50°
2026-04-26 11:32 53.59274 9.91222 933 ft 140 kts 50°
2026-04-26 11:32 53.59896 9.92477 745 ft 139 kts 50°
2026-04-26 11:32 53.60514 9.93723 552 ft 138 kts 50°
2026-04-26 11:32 53.61129 9.94966 362 ft 138 kts 51°
2026-04-26 11:33 53.61743 9.96205 170 ft 138 kts 51°
2026-04-26 11:33 53.62346 9.97423 42 ft 125 kts 50°
2026-04-26 11:33 53.62707 9.98162 45 ft 45 kts 50°
2026-04-26 11:33 53.62918 9.98590 43 ft 51 kts 50°
2026-04-26 11:34 53.63128 9.99009 46 ft 39 kts 50°
2026-04-26 11:34 53.63262 9.99288 48 ft 26 kts 58°
2026-04-26 11:34 53.63288 9.99557 44 ft 19 kts 99°
2026-04-26 11:34 53.63235 9.99751 45 ft 19 kts 154°
2026-04-26 11:35 53.63120 9.99862 45 ft 16 kts 123°
2026-04-26 11:35 53.63171 10.00017 45 ft 16 kts 51°
2026-04-26 11:35 53.63228 10.00139 45 ft 15 kts 67°
2026-04-26 11:35 53.63198 10.00224 46 ft 13 kts 124°
2026-04-26 11:36 53.63197 10.00364 46 ft 7 kts 86°
2026-04-26 11:36 53.63198 10.00388 46 ft 0 kts 86°